This is the latest recevied weather packets stored in our database for station/object KEFK. If no packets are shown the sender has not sent any weather packets the latest 1 day(s).
| Time | Temp. | Humidity | Pressure | Rain* | Wind** | Luminosity | Snow |
|---|---|---|---|---|---|---|---|
| 1778001806 | 23.89° C | 36% | 1001.4 hPa | - | 6.71 m/s, 200° | - | - |
| 1778001212 | 23.89° C | 36% | 1002 hPa | - | 7.15 m/s, 190° | - | - |
| 1778000610 | 23.89° C | 36% | 1002 hPa | - | 7.15 m/s, 190° | - | - |
| 1778000010 | 22.78° C | 40% | 1002.4 hPa | - | 9.39 m/s, 210° | - | - |
| 1777999412 | 22.78° C | 40% | 1002.4 hPa | - | 9.39 m/s, 210° | - | - |
| 1777998808 | 22.78° C | 40% | 1002.7 hPa | - | 6.71 m/s, 190° | - | - |
| 1777998211 | 22.78° C | 40% | 1002.7 hPa | - | 6.71 m/s, 190° | - | - |
| 1777997608 | 22.78° C | 40% | 1003 hPa | - | 9.39 m/s, 200° | - | - |
| 1777997016 | 22.78° C | 40% | 1003 hPa | - | 9.39 m/s, 200° | - | - |
| 1777996411 | 21.67° C | 43% | 1003.4 hPa | - | 7.6 m/s, 200° | - | - |
| 1777995928 | 21.67° C | 43% | 1003.4 hPa | - | 7.6 m/s, 200° | - | - |
| 1777995208 | 21.67° C | 40% | 1003.7 hPa | - | 8.94 m/s, 200° | - | - |
| 1777994609 | 21.67° C | 40% | 1003.7 hPa | - | 8.94 m/s, 200° | - | - |
| 1777994008 | 20° C | 42% | 1004.1 hPa | - | 4.92 m/s, 190° | - | - |
| 1777993406 | 20° C | 42% | 1004.1 hPa | - | 4.92 m/s, 190° | - | - |
| 1777992808 | 18.89° C | 45% | 1004.4 hPa | - | 4.92 m/s, 200° | - | - |
| 1777992207 | 18.89° C | 45% | 1004.4 hPa | - | 4.92 m/s, 200° | - | - |
| 1777991606 | 20° C | 42% | 1004.4 hPa | - | 5.81 m/s, 190° | - | - |
| 1777991008 | 20° C | 42% | 1004.4 hPa | - | 5.81 m/s, 190° | - | - |
| 1777990407 | 18.89° C | 45% | 1004.7 hPa | - | 4.02 m/s, 190° | - | - |
| 1777989806 | 18.89° C | 45% | 1004.7 hPa | - | 4.02 m/s, 190° | - | - |
| 1777989206 | 17.78° C | 45% | 1004.7 hPa | - | 4.02 m/s, 200° | - | - |
| 1777988609 | 17.78° C | 45% | 1004.7 hPa | - | 4.02 m/s, 200° | - | - |
| 1777988006 | 16.67° C | 51% | 1005.1 hPa | - | 4.47 m/s, 200° | - | - |
| 1777987408 | 16.67° C | 51% | 1005.1 hPa | - | 4.47 m/s, 200° | - | - |
* Rain since midnight (hover to see other rain measurements)
** Current wind speed in m/s (hover to see current wind gust speed)